Weather History for Huntsville, AL

Change the Weather History Date:

Saturday, March 3, 2012

  Actual Average Record
Temperature  
Mean Temperature 49 °F 50 °F  
Max Temperature 58 °F 61 °F 78 °F (1983)
Min Temperature 40 °F 39 °F 6 °F (1980)
Degree Days  
Heating Degree Days 16 15  
Month to date heating degree days 19 46  
Since 1 July heating degree days 2143 2498  
Cooling Degree Days 0 0  
Month to date cooling degree days 4 0  
Year to date cooling degree days 8 1  
Moisture  
Dew Point 28 °F    
Average Humidity 47    
Maximum Humidity 70    
Minimum Humidity 23    
Precipitation  
Precipitation 0.00 in 0.16 in 3.45 in (1979)
Month to date precipitation 0.02 0.50  
Year to date precipitation 11.37 10.23  
Snow  
Snow 0.00 in - - ()
Month to date snowfall 0.0  
Since 1 July snowfall T  
Snow Depth 0.00 in    
Sea Level Pressure  
Sea Level Pressure 29.89 in    
Wind  
Wind Speed 10 mph (NNW)    
Max Wind Speed 24 mph    
Max Gust Speed 30 mph    
Visibility 10 miles    
Events      
T = Trace of Precipitation, MM = Missing Value Source: NWS Daily Summary

Daily Weather History Graph

Daily Weather History Graph

Search for Another Location

Airport:

Trip Planner

Search our weather history database for the weather conditions in past years. The results will help you decide how hot, cold, wet, or windy it might be!

Date:

Astronomy

Mar. 03, 2012 Rise Set
Actual Time 6:13 AM CST 5:45 PM CST
Civil Twilight 5:47 AM CST 6:10 PM CST
Nautical Twilight 5:18 AM CST 6:39 PM CST
Astronomical Twilight 4:49 AM CST 7:08 PM CST
Moon 1:04 PM CST (3/3) 2:39 AM CST (3/3)
Length of Visible Light 12h 22m
Length of Day
11h 32m
Waxing Gibbous, 75% of the Moon is Illuminated
Mar 3
Waxing Gibbous
Mar 8
Full
Mar 14
Last Quarter
Mar 22
New
Mar 30
First Quarter

Hourly Weather History & Observations

Time (CST) Temp. Windchill Dew Point Humidity Pressure Visibility Wind Dir Wind Speed Gust Speed Precip Events Conditions
12:53 AM 54.0 °F - 39.0 °F 57% 29.75 in 10.0 mi North 19.6 mph 26.5 mph N/A   Overcast
1:53 AM 48.9 °F - 34.0 °F 56% 29.81 in 10.0 mi North 13.8 mph 25.3 mph N/A   Mostly Cloudy
2:53 AM 46.9 °F - 33.1 °F 59% 29.84 in 10.0 mi North 15.0 mph - N/A   Mostly Cloudy
3:53 AM 44.1 °F 38.6 °F 32.0 °F 63% 29.84 in 10.0 mi North 10.4 mph - N/A   Scattered Clouds
4:53 AM 42.1 °F 36.1 °F 30.0 °F 62% 29.89 in 10.0 mi NNE 10.4 mph - N/A   Partly Cloudy
5:53 AM 41.0 °F 35.8 °F 30.0 °F 65% 29.91 in 10.0 mi North 8.1 mph - N/A   Scattered Clouds
6:53 AM 39.9 °F 32.9 °F 30.9 °F 70% 29.94 in 10.0 mi North 11.5 mph - N/A   Scattered Clouds
7:53 AM 44.1 °F 39.0 °F 30.9 °F 60% 29.96 in 10.0 mi NNE 9.2 mph - N/A   Scattered Clouds
8:53 AM 48.0 °F - 28.0 °F 46% 29.96 in 10.0 mi NNE 15.0 mph 20.7 mph N/A   Partly Cloudy
9:53 AM 51.1 °F - 26.1 °F 38% 29.95 in 10.0 mi North 18.4 mph - N/A   Mostly Cloudy
10:53 AM 54.0 °F - 25.0 °F 33% 29.94 in 10.0 mi North 12.7 mph - N/A   Mostly Cloudy
11:53 AM 54.0 °F - 23.0 °F 30% 29.91 in 10.0 mi North 9.2 mph - N/A   Mostly Cloudy
12:53 PM 57.0 °F - 21.0 °F 25% 29.87 in 10.0 mi NNE 10.4 mph 19.6 mph N/A   Mostly Cloudy
1:53 PM 57.9 °F - 23.0 °F 26% 29.87 in 10.0 mi WNW 9.2 mph 17.3 mph N/A   Mostly Cloudy
2:53 PM 57.0 °F - 19.9 °F 24% 29.88 in 10.0 mi NNW 8.1 mph - N/A   Mostly Cloudy
3:53 PM 54.0 °F - 21.9 °F 29% 29.88 in 10.0 mi NW 8.1 mph - N/A   Mostly Cloudy
4:53 PM 53.1 °F - 24.1 °F 32% 29.86 in 10.0 mi WNW 8.1 mph - N/A   Mostly Cloudy
5:53 PM 52.0 °F - 28.0 °F 40% 29.88 in 10.0 mi West 5.8 mph - N/A   Mostly Cloudy
6:53 PM 48.0 °F - 30.0 °F 50% 29.89 in 10.0 mi West 4.6 mph - N/A   Scattered Clouds
7:53 PM 46.9 °F - 30.0 °F 52% 29.90 in 10.0 mi West 3.5 mph - N/A   Scattered Clouds
8:53 PM 46.0 °F 43.1 °F 27.0 °F 47% 29.91 in 10.0 mi WNW 5.8 mph - N/A   Partly Cloudy
9:53 PM 44.1 °F 40.8 °F 26.1 °F 49% 29.93 in 10.0 mi WNW 5.8 mph - N/A   Clear
10:53 PM 43.0 °F 38.2 °F 24.1 °F 47% 29.94 in 10.0 mi NW 8.1 mph - N/A   Partly Cloudy
11:53 PM 41.0 °F 37.1 °F 23.0 °F 49% 29.93 in 10.0 mi WNW 5.8 mph - N/A   Clear